Weather History for Zaragoza, Spain

Change the Weather History Date:

Wednesday, December 12, 2012

  Actual Average Record
Temperature  
Mean Temperature 36 °F -  
Max Temperature 43 °F 49 °F 68 °F (1998)
Min Temperature 28 °F 35 °F 23 °F (2001)
Degree Days  
Heating Degree Days 30    
Moisture  
Dew Point 29 °F    
Average Humidity 81    
Maximum Humidity 93    
Minimum Humidity 54    
Precipitation  
Precipitation 0.00 in 0.03 in - ()
Sea Level Pressure  
Sea Level Pressure 30.06 in    
Wind  
Wind Speed 3 mph ()    
Max Wind Speed 9 mph    
Max Gust Speed -    
Visibility 4.3 miles    
Events      
Averages and records for this station are not official NWS values.
T = Trace of Precipitation, MM = Missing Value Source: Averaged Metar Reports

Daily Weather History Graph

Daily Weather History Graph

Search for Another Location

Airport:

Trip Planner

Search our weather history database for the weather conditions in past years. The results will help you decide how hot, cold, wet, or windy it might be!

Date:

Astronomy

Dec. 12, 2012 Rise Set
Actual Time 8:21 AM CET 5:33 PM CET
Civil Twilight 7:50 AM CET 6:05 PM CET
Nautical Twilight 7:15 AM CET 6:40 PM CET
Astronomical Twilight 6:41 AM CET 7:14 PM CET
Moon 7:09 AM CET (12/12) 4:56 PM CET (12/12)
Length of Visible Light 10h 14m
Length of Day
9h 11m
Waning Crescent, 1% of the Moon is Illuminated
Dec 12
Waning Crescent
Dec 13
New
Dec 20
First Quarter
Dec 28
Full
Jan 5
Last Quarter

Hourly Weather History & Observations

Time (CET) Temp. Windchill Dew Point Humidity Pressure Visibility Wind Dir Wind Speed Gust Speed Precip Events Conditions
12:00 AM 33.8 °F 30.8 °F 28.4 °F 81% 30.12 in - WSW 3.5 mph - N/A   Clear
12:30 AM 33.8 °F 27.0 °F 26.6 °F 75% 30.12 in - West 8.1 mph - N/A   Clear
1:00 AM 35 °F - 26 °F 60% 30.14 in 12 mi WNW 1.2 mph - -   Clear
1:00 AM 32.0 °F 27.5 °F 26.6 °F 80% 30.12 in - WNW 4.6 mph - N/A   Clear
1:30 AM 32.0 °F - 26.6 °F 80% 30.12 in - Calm Calm - N/A   Clear
2:00 AM 33.8 °F - 26.6 °F 75% 30.12 in - Calm Calm - N/A   Clear
2:30 AM 32.0 °F - 26.6 °F 80% 30.12 in - Calm Calm - N/A   Clear
3:00 AM 32.0 °F - 26.6 °F 80% 30.12 in - Calm Calm - N/A   Clear
3:30 AM 30.2 °F - 26.6 °F 86% 30.12 in - South 2.3 mph - N/A   Clear
4:00 AM 30.2 °F 26.7 °F 26.6 °F 86% 30.12 in - SSE 3.5 mph - N/A   Clear
4:30 AM 30.2 °F - 26.6 °F 86% 30.09 in 5.6 mi Variable 2.3 mph - N/A   Unknown
5:00 AM 30.2 °F - 26.6 °F 86% 30.09 in 5.6 mi SE 2.3 mph - N/A   Unknown
5:30 AM 30.2 °F - 26.6 °F 86% 30.09 in 5.6 mi ESE 1.2 mph - N/A   Unknown
6:00 AM 28.4 °F - 26.6 °F 93% 30.09 in 5.6 mi SE 1.2 mph - N/A   Unknown
6:30 AM 28.4 °F - 26.6 °F 93% 30.09 in 5.6 mi South 1.2 mph - N/A   Unknown
7:00 AM 29 °F - 27 °F 88% 30.14 in 6 mi Calm Calm - -   Clear
7:00 AM 28.4 °F - 26.6 °F 93% 30.09 in - Calm Calm - N/A   Clear
7:30 AM 28.4 °F - 26.6 °F 93% 30.09 in 5.0 mi East 1.2 mph - N/A   Unknown
8:00 AM 28.4 °F - 26.6 °F 93% 30.09 in 5.0 mi Calm Calm - N/A   Unknown
8:30 AM 28.4 °F - 26.6 °F 93% 30.09 in 5.0 mi South 2.3 mph - N/A   Unknown
9:00 AM 28.4 °F - 26.6 °F 93% 30.09 in 5.0 mi SE 2.3 mph - N/A   Unknown
9:30 AM 28.4 °F - 26.6 °F 93% 30.09 in 3.7 mi Calm Calm - N/A   Unknown
10:00 AM 30.2 °F - 28.4 °F 93% 30.09 in 3.7 mi Variable 1.2 mph - N/A   Unknown
10:30 AM 32.0 °F - 30.2 °F 93% 30.09 in 3.1 mi Variable 1.2 mph - N/A   Mist
11:00 AM 33.8 °F - 30.2 °F 87% 30.09 in 3.1 mi Variable 1.2 mph - N/A   Mist
11:30 AM 35.6 °F 32.8 °F 30.2 °F 81% 30.09 in 3.1 mi East 3.5 mph - N/A   Mist
12:00 PM 37.4 °F 32.8 °F 30.2 °F 75% 30.09 in 3.1 mi East 5.8 mph - N/A   Mist
12:30 PM 39.2 °F 35.9 °F 30.2 °F 70% 30.06 in 3.1 mi East 4.6 mph - N/A   Mist
1:00 PM 40 °F - 29 °F 54% 30.11 in 4 mi East 5.8 mph - -   Mist
1:00 PM 39.2 °F 35.0 °F 30.2 °F 70% 30.06 in 3.7 mi East 5.8 mph - N/A   Unknown
1:30 PM 39.2 °F 35.0 °F 30.2 °F 70% 30.04 in 3.7 mi East 5.8 mph - N/A   Partly Cloudy
2:00 PM 41.0 °F 35.8 °F 32.0 °F 70% 30.04 in 3.7 mi East 8.1 mph - N/A   Partly Cloudy
2:30 PM 41.0 °F 35.8 °F 33.8 °F 76% 30.04 in 3.7 mi East 8.1 mph - N/A   Partly Cloudy
3:00 PM 41.0 °F 35.2 °F 32.0 °F 70% 30.01 in 3.7 mi East 9.2 mph - N/A   Partly Cloudy
3:30 PM 41.0 °F 35.2 °F 32.0 °F 70% 30.01 in 3.7 mi East 9.2 mph - N/A   Partly Cloudy
4:00 PM 42.8 °F 38.0 °F 32.0 °F 66% 30.01 in 4.3 mi ESE 8.1 mph - N/A   Partly Cloudy
4:30 PM 42.8 °F 37.5 °F 32.0 °F 66% 30.01 in 4.3 mi East 9.2 mph - N/A   Partly Cloudy
5:00 PM 41.0 °F 36.4 °F 32.0 °F 70% 30.01 in 4.3 mi East 6.9 mph - N/A   Partly Cloudy
5:30 PM 41.0 °F 36.4 °F 30.2 °F 65% 29.98 in 4.3 mi East 6.9 mph - N/A   Partly Cloudy
6:00 PM 39.2 °F 35.0 °F 30.2 °F 70% 29.98 in 4.3 mi ESE 5.8 mph - N/A   Partly Cloudy
6:30 PM 37.4 °F 34.9 °F 30.2 °F 75% 29.98 in 4.3 mi East 3.5 mph - N/A   Partly Cloudy
7:00 PM 38 °F - 34 °F 79% 30.04 in 4 mi East 3.5 mph - -   Mist
7:00 PM 35.6 °F 32.8 °F 32.0 °F 87% 29.98 in 3.7 mi East 3.5 mph - N/A   Partly Cloudy
7:30 PM 37.4 °F 32.1 °F 33.8 °F 87% 29.98 in 3.7 mi East 6.9 mph - N/A   Partly Cloudy
8:00 PM 35.6 °F - 32.0 °F 87% 29.98 in 3.7 mi East 2.3 mph - N/A   Partly Cloudy
8:30 PM 37.4 °F - 33.8 °F 87% 29.98 in 3.7 mi Variable 1.2 mph - N/A   Partly Cloudy
9:00 PM 35.6 °F - 32.0 °F 87% 29.98 in 3.7 mi SE 1.2 mph - N/A   Partly Cloudy
9:30 PM 35.6 °F 31.7 °F 33.8 °F 93% 29.98 in 3.7 mi ESE 4.6 mph - N/A   Partly Cloudy
10:00 PM 35.6 °F 32.8 °F 32.0 °F 87% 29.98 in 3.7 mi East 3.5 mph - N/A   Partly Cloudy
10:30 PM 35.6 °F 30.7 °F 32.0 °F 87% 29.98 in 3.7 mi East 5.8 mph - N/A   Partly Cloudy
11:00 PM 33.8 °F - 32.0 °F 93% 29.98 in 3.7 mi Variable 2.3 mph - N/A   Partly Cloudy
11:30 PM 33.8 °F 30.8 °F 32.0 °F 93% 29.98 in 3.1 mi ESE 3.5 mph - N/A   Partly Cloudy